sat.trackr.live / text

‹ back to catalog

STARLINK-32350

NORAD 61063 · 2024-164P

PAYLOAD ACTIVE UNKNOWN

§ Identity

Operator
Country
US
Launch date
2024-09-13
Launch site
AFWTR
Launch vehicle
Mass (kg)
RCS (m²)

Purposes: comms

External: N2YO · Heavens-Above · Gunter

§ Orbital elements

Epoch: 2026-05-25T03:12:46.698048Z

Period
94.01 min
Inclination
53.1614°
Eccentricity
0.0001141
Mean motion
15.31696929 rev/d
Perigee alt
470.0 km
Apogee alt
471.5 km
Semi-major
6,848.9 km
B*
7.3381e-5
RAAN
95.8936°
Arg perigee
83.8631°
Mean anomaly
276.2500°
Rev number
9,518

§ Raw data

STARLINK-323501 61063U 24164P   26145.13387382  .00001912  00000+0  73381-4 0  99942 61063  53.1614  95.8936 0001141  83.8631 276.2500 15.31696929 95180

JSON: /api/v1/satellites/61063 · /tle

For live sub-satellite position, see the globe view (requires WebGL).

§ Visibility from observer

Set your observer location to see the next 7 days of passes ≥ 10°. The values pass through the URL so the page stays shareable.

No JS? Fill the form by hand. The geolocation button needs JavaScript.